Wetterdaten: aktuell Donnerstag, 13.12.2018 03:30
Datum Zeit Temp. 2m Temp. -50cm Temp. -10cm Temp. -5cm Temp. +5cm Feuchte 2m Feuch. -10cm Luftdruck Regen Wind Richtung Richtung Sonnenschein Solar Windben
13.12.2018 03:30 -9,7 C 4,4 C 3,2 C 2,8 C -12,6 C 83 % 7 cb 1015,9 hPa 0,0 l/m 0,3 km/h W-SW 248 0 min 0 W/m 3,2 km/h
13.12.2018 03:25 -9,7 C 4,4 C 3,2 C 2,8 C -12,4 C 83 % 7 cb 1015,8 hPa 0,0 l/m 0,0 km/h N 360 0 min 0 W/m 0,0 km/h
13.12.2018 03:20 -9,7 C 4,4 C 3,2 C 2,8 C -12,6 C 83 % 7 cb 1015,9 hPa 0,0 l/m 0,0 km/h N 360 0 min 0 W/m 0,0 km/h
13.12.2018 03:15 -9,6 C 4,4 C 3,2 C 2,8 C -12,6 C 83 % 7 cb 1016,0 hPa 0,0 l/m 0,0 km/h N 360 0 min 0 W/m 0,0 km/h
13.12.2018 03:10 -9,6 C 4,4 C 3,2 C 2,8 C -12,3 C 83 % 7 cb 1016,1 hPa 0,0 l/m 0,4 km/h W-SW 248 0 min 0 W/m 3,2 km/h
13.12.2018 03:05 -9,6 C 4,4 C 3,2 C 2,8 C -12,2 C 83 % 7 cb 1016,2 hPa 0,0 l/m 3,4 km/h W-SW 248 0 min 0 W/m 4,8 km/h
13.12.2018 03:00 -9,6 C 4,4 C 3,2 C 2,8 C -12,3 C 84 % 7 cb 1016,2 hPa 0,0 l/m 1,5 km/h W-SW 248 0 min 0 W/m 3,2 km/h
13.12.2018 02:55 -9,5 C 4,4 C 3,2 C 2,8 C -12,3 C 84 % 7 cb 1016,3 hPa 0,0 l/m 0,6 km/h W-SW 248 0 min 0 W/m 3,2 km/h
13.12.2018 02:50 -9,5 C 4,4 C 3,3 C 2,8 C -12,2 C 84 % 7 cb 1016,3 hPa 0,0 l/m 0,4 km/h W-SW 248 0 min 0 W/m 1,6 km/h
13.12.2018 02:45 -9,5 C 4,4 C 3,3 C 2,8 C -12,3 C 84 % 7 cb 1016,4 hPa 0,0 l/m 1,8 km/h W-SW 248 0 min 0 W/m 3,2 km/h
13.12.2018 02:40 -9,5 C 4,4 C 3,3 C 2,8 C -12,4 C 83 % 7 cb 1016,4 hPa 0,0 l/m 1,0 km/h W-SW 248 0 min 0 W/m 4,8 km/h
13.12.2018 02:35 -9,4 C 4,4 C 3,3 C 2,8 C -12,3 C 84 % 7 cb 1016,5 hPa 0,0 l/m 0,2 km/h W-SW 248 0 min 0 W/m 1,6 km/h
13.12.2018 02:30 -9,4 C 4,4 C 3,3 C 2,8 C -12,1 C 83 % 7 cb 1016,6 hPa 0,0 l/m 1,3 km/h W-SW 248 0 min 0 W/m 3,2 km/h
13.12.2018 02:25 -9,4 C 4,4 C 3,3 C 2,8 C -11,9 C 83 % 7 cb 1016,6 hPa 0,0 l/m 2,3 km/h W-SW 248 0 min 0 W/m 3,2 km/h
13.12.2018 02:20 -9,4 C 4,4 C 3,3 C 2,8 C -12,0 C 83 % 7 cb 1016,6 hPa 0,0 l/m 2,6 km/h W-SW 248 0 min 0 W/m 3,2 km/h
13.12.2018 02:15 -9,4 C 4,4 C 3,3 C 2,8 C -12,1 C 83 % 7 cb 1016,6 hPa 0,0 l/m 2,9 km/h W-SW 248 0 min 0 W/m 4,8 km/h
13.12.2018 02:10 -9,4 C 4,4 C 3,3 C 2,8 C -12,0 C 83 % 7 cb 1016,6 hPa 0,0 l/m 3,1 km/h W-SW 248 0 min 0 W/m 4,8 km/h
13.12.2018 02:05 -9,3 C 4,4 C 3,3 C 2,8 C -11,9 C 83 % 7 cb 1016,6 hPa 0,0 l/m 3,5 km/h W-SW 248 0 min 0 W/m 4,8 km/h
13.12.2018 02:00 -9,3 C 4,4 C 3,3 C 2,8 C -12,0 C 82 % 7 cb 1016,7 hPa 0,0 l/m 2,6 km/h W-SW 248 0 min 0 W/m 3,2 km/h
13.12.2018 01:55 -9,2 C 4,4 C 3,3 C 2,8 C -12,0 C 83 % 7 cb 1016,7 hPa 0,0 l/m 2,0 km/h W-SW 248 0 min 0 W/m 3,2 km/h
13.12.2018 01:50 -9,2 C 4,4 C 3,3 C 2,8 C -11,9 C 83 % 7 cb 1016,7 hPa 0,0 l/m 2,7 km/h W-SW 248 0 min 0 W/m 4,8 km/h
13.12.2018 01:45 -9,1 C 4,4 C 3,3 C 2,8 C -12,0 C 82 % 7 cb 1016,8 hPa 0,0 l/m 1,0 km/h W-SW 248 0 min 0 W/m 3,2 km/h
13.12.2018 01:40 -9,1 C 4,4 C 3,3 C 2,8 C -11,7 C 82 % 7 cb 1016,8 hPa 0,0 l/m 0,4 km/h W-SW 248 0 min 0 W/m 1,6 km/h
13.12.2018 01:35 -9,1 C 4,4 C 3,3 C 2,8 C -11,6 C 82 % 7 cb 1016,8 hPa 0,0 l/m 1,9 km/h W-SW 248 0 min 0 W/m 3,2 km/h
13.12.2018 01:30 -9,0 C 4,4 C 3,3 C 2,8 C -11,5 C 82 % 7 cb 1016,9 hPa 0,0 l/m 2,8 km/h W-SW 248 0 min 0 W/m 4,8 km/h
13.12.2018 01:25 -8,9 C 4,4 C 3,3 C 2,8 C -11,5 C 82 % 7 cb 1017,0 hPa 0,0 l/m 4,1 km/h W-SW 248 0 min 0 W/m 4,8 km/h
13.12.2018 01:20 -8,9 C 4,4 C 3,3 C 2,8 C -11,9 C 82 % 7 cb 1017,0 hPa 0,0 l/m 1,7 km/h W-SW 248 0 min 0 W/m 3,2 km/h
13.12.2018 01:15 -8,8 C 4,4 C 3,3 C 2,8 C -11,9 C 82 % 7 cb 1017,0 hPa 0,0 l/m 1,7 km/h W-SW 248 0 min 0 W/m 3,2 km/h
13.12.2018 01:10 -8,8 C 4,4 C 3,3 C 2,8 C -11,7 C 82 % 7 cb 1017,1 hPa 0,0 l/m 2,9 km/h W-SW 248 0 min 0 W/m 4,8 km/h
13.12.2018 01:05 -8,7 C 4,4 C 3,3 C 2,8 C -11,8 C 82 % 7 cb 1017,2 hPa 0,0 l/m 0,0 km/h N 360 0 min 0 W/m 0,0 km/h
13.12.2018 01:00 -8,7 C 4,4 C 3,3 C 2,8 C -11,6 C 82 % 7 cb 1017,2 hPa 0,0 l/m 0,2 km/h W-SW 248 0 min 0 W/m 1,6 km/h
13.12.2018 00:55 -8,6 C 4,4 C 3,4 C 2,8 C -11,4 C 82 % 7 cb 1017,3 hPa 0,0 l/m 1,5 km/h W-SW 248 0 min 0 W/m 4,8 km/h
13.12.2018 00:50 -8,6 C 4,4 C 3,4 C 2,8 C -11,5 C 82 % 7 cb 1017,3 hPa 0,0 l/m 1,5 km/h W-SW 248 0 min 0 W/m 3,2 km/h
13.12.2018 00:45 -8,6 C 4,4 C 3,4 C 2,8 C -11,4 C 82 % 7 cb 1017,3 hPa 0,0 l/m 1,1 km/h W-SW 248 0 min 0 W/m 4,8 km/h
13.12.2018 00:40 -8,5 C 4,4 C 3,4 C 2,8 C -11,5 C 82 % 7 cb 1017,3 hPa 0,0 l/m 0,0 km/h N 360 0 min 0 W/m 0,0 km/h
13.12.2018 00:35 -8,4 C 4,4 C 3,4 C 2,8 C -11,3 C 82 % 7 cb 1017,4 hPa 0,0 l/m 0,0 km/h N 360 0 min 0 W/m 0,0 km/h
13.12.2018 00:30 -8,4 C 4,4 C 3,4 C 2,9 C -11,3 C 82 % 7 cb 1017,4 hPa 0,0 l/m 0,1 km/h W-SW 248 0 min 0 W/m 1,6 km/h
13.12.2018 00:25 -8,4 C 4,4 C 3,4 C 2,9 C -11,3 C 82 % 7 cb 1017,4 hPa 0,0 l/m 2,1 km/h W-SW 248 0 min 0 W/m 3,2 km/h
13.12.2018 00:20 -8,3 C 4,5 C 3,4 C 2,9 C -11,4 C 82 % 7 cb 1017,5 hPa 0,0 l/m 2,4 km/h W-SW 248 0 min 0 W/m 3,2 km/h
13.12.2018 00:15 -8,3 C 4,5 C 3,4 C 2,9 C -11,4 C 81 % 7 cb 1017,6 hPa 0,0 l/m 2,8 km/h W-SW 248 0 min 0 W/m 4,8 km/h
13.12.2018 00:10 -8,2 C 4,5 C 3,4 C 2,9 C -11,2 C 81 % 7 cb 1017,6 hPa 0,0 l/m 3,5 km/h W-SW 248 0 min 0 W/m 4,8 km/h
13.12.2018 00:05 -8,2 C 4,5 C 3,4 C 2,9 C -11,2 C 81 % 7 cb 1017,7 hPa 0,0 l/m 0,3 km/h W 270 0 min 0 W/m 3,2 km/h
13.12.2018 00:00 -8,1 C 4,5 C 3,4 C 2,9 C -11,0 C 82 % 7 cb 1017,7 hPa 0,0 l/m 1,0 km/h W 270 0 min 0 W/m 3,2 km/h
12.12.2018 23:55 -8,1 C 4,5 C 3,4 C 2,9 C -11,0 C 82 % 7 cb 1017,7 hPa 0,0 l/m 2,0 km/h W 270 0 min 0 W/m 3,2 km/h
12.12.2018 23:50 -8,0 C 4,5 C 3,4 C 2,9 C -11,1 C 82 % 7 cb 1017,8 hPa 0,0 l/m 0,1 km/h W 270 0 min 0 W/m 1,6 km/h
12.12.2018 23:45 -7,9 C 4,5 C 3,4 C 2,9 C -11,1 C 81 % 7 cb 1017,8 hPa 0,0 l/m 0,2 km/h W 270 0 min 0 W/m 1,6 km/h
12.12.2018 23:40 -7,9 C 4,5 C 3,4 C 2,9 C -10,6 C 82 % 7 cb 1017,8 hPa 0,0 l/m 2,9 km/h W 270 0 min 0 W/m 4,8 km/h
12.12.2018 23:35 -7,8 C 4,5 C 3,4 C 2,9 C -10,4 C 82 % 7 cb 1017,9 hPa 0,0 l/m 3,4 km/h W 270 0 min 0 W/m 4,8 km/h
12.12.2018 23:30 -7,7 C 4,5 C 3,4 C 2,9 C -10,4 C 82 % 7 cb 1017,9 hPa 0,0 l/m 2,1 km/h W 270 0 min 0 W/m 3,2 km/h
12.12.2018 23:25 -7,7 C 4,5 C 3,4 C 2,9 C -10,3 C 82 % 7 cb 1018,0 hPa 0,0 l/m 2,4 km/h W 270 0 min 0 W/m 3,2 km/h
12.12.2018 23:20 -7,6 C 4,5 C 3,4 C 2,9 C -10,1 C 82 % 7 cb 1018,0 hPa 0,0 l/m 2,3 km/h W 270 0 min 0 W/m 3,2 km/h
12.12.2018 23:15 -7,6 C 4,5 C 3,4 C 2,9 C -10,0 C 83 % 7 cb 1018,0 hPa 0,0 l/m 2,7 km/h W 270 0 min 0 W/m 4,8 km/h
12.12.2018 23:10 -7,6 C 4,5 C 3,4 C 2,9 C -9,6 C 83 % 7 cb 1018,1 hPa 0,0 l/m 2,7 km/h W 270 0 min 0 W/m 4,8 km/h
12.12.2018 23:05 -7,6 C 4,5 C 3,4 C 2,9 C -9,4 C 83 % 7 cb 1018,1 hPa 0,0 l/m 4,7 km/h W 270 0 min 0 W/m 9,6 km/h
12.12.2018 23:00 -7,6 C 4,5 C 3,4 C 2,9 C -9,6 C 83 % 7 cb 1018,3 hPa 0,0 l/m 4,5 km/h W 270 0 min 0 W/m 6,4 km/h
12.12.2018 22:55 -7,6 C 4,5 C 3,4 C 2,9 C -9,8 C 83 % 7 cb 1018,1 hPa 0,0 l/m 4,1 km/h W 270 0 min 0 W/m 6,4 km/h
12.12.2018 22:50 -7,5 C 4,5 C 3,4 C 3,0 C -10,1 C 83 % 7 cb 1018,3 hPa 0,0 l/m 2,7 km/h W-NW 292 0 min 0 W/m 9,6 km/h
12.12.2018 22:45 -7,5 C 4,5 C 3,5 C 3,0 C -10,2 C 83 % 7 cb 1018,2 hPa 0,0 l/m 1,2 km/h W 270 0 min 0 W/m 3,2 km/h
12.12.2018 22:40 -7,5 C 4,5 C 3,5 C 3,0 C -9,8 C 84 % 7 cb 1018,2 hPa 0,0 l/m 3,4 km/h W 270 0 min 0 W/m 4,8 km/h
12.12.2018 22:35 -7,6 C 4,5 C 3,5 C 3,0 C -9,3 C 84 % 7 cb 1018,3 hPa 0,0 l/m 3,8 km/h W 270 0 min 0 W/m 6,4 km/h
12.12.2018 22:30 -7,6 C 4,5 C 3,5 C 3,0 C -9,4 C 84 % 7 cb 1018,3 hPa 0,0 l/m 5,1 km/h W 270 0 min 0 W/m 9,6 km/h
12.12.2018 22:25 -7,7 C 4,5 C 3,5 C 3,0 C -9,4 C 84 % 7 cb 1018,4 hPa 0,0 l/m 6,2 km/h W 270 0 min 0 W/m 11,2 km/h
12.12.2018 22:20 -7,8 C 4,5 C 3,5 C 3,0 C -9,9 C 83 % 7 cb 1018,3 hPa 0,0 l/m 5,6 km/h W-SW 248 0 min 0 W/m 11,2 km/h
12.12.2018 22:15 -7,8 C 4,5 C 3,5 C 3,0 C -9,8 C 83 % 7 cb 1018,3 hPa 0,0 l/m 5,5 km/h W 270 0 min 0 W/m 9,6 km/h
12.12.2018 22:10 -7,9 C 4,5 C 3,5 C 3,0 C -10,2 C 82 % 7 cb 1018,4 hPa 0,0 l/m 4,8 km/h W 270 0 min 0 W/m 9,6 km/h
12.12.2018 22:05 -7,9 C 4,5 C 3,5 C 3,0 C -10,6 C 82 % 7 cb 1018,3 hPa 0,0 l/m 3,4 km/h W-SW 248 0 min 0 W/m 6,4 km/h
12.12.2018 22:00 -7,9 C 4,5 C 3,5 C 3,0 C -10,6 C 82 % 7 cb 1018,4 hPa 0,0 l/m 3,2 km/h W-SW 248 0 min 0 W/m 4,8 km/h
12.12.2018 21:55 -7,8 C 4,5 C 3,5 C 3,0 C -10,6 C 82 % 7 cb 1018,4 hPa 0,0 l/m 3,2 km/h W-SW 248 0 min 0 W/m 4,8 km/h
12.12.2018 21:50 -7,8 C 4,5 C 3,5 C 3,0 C -10,7 C 82 % 7 cb 1018,4 hPa 0,0 l/m 2,1 km/h W-SW 248 0 min 0 W/m 4,8 km/h
12.12.2018 21:45 -7,8 C 4,5 C 3,5 C 3,0 C -10,4 C 82 % 7 cb 1018,4 hPa 0,0 l/m 2,7 km/h W-SW 248 0 min 0 W/m 4,8 km/h
12.12.2018 21:40 -7,8 C 4,5 C 3,5 C 3,0 C -10,3 C 82 % 7 cb 1018,4 hPa 0,0 l/m 3,3 km/h W-SW 248 0 min 0 W/m 4,8 km/h
12.12.2018 21:35 -7,8 C 4,5 C 3,5 C 3,0 C -10,3 C 82 % 7 cb 1018,5 hPa 0,0 l/m 2,4 km/h W-SW 248 0 min 0 W/m 3,2 km/h
12.12.2018 21:30 -7,8 C 4,5 C 3,5 C 3,0 C -10,6 C 82 % 7 cb 1018,5 hPa 0,0 l/m 0,4 km/h W-SW 248 0 min 0 W/m 1,6 km/h
12.12.2018 21:25 -7,8 C 4,5 C 3,5 C 3,0 C -10,6 C 81 % 7 cb 1018,4 hPa 0,0 l/m 0,0 km/h W-SW 248 0 min 0 W/m 1,6 km/h
12.12.2018 21:20 -7,8 C 4,5 C 3,5 C 3,1 C -10,4 C 81 % 7 cb 1018,5 hPa 0,0 l/m 1,1 km/h W-SW 248 0 min 0 W/m 1,6 km/h
12.12.2018 21:15 -7,7 C 4,5 C 3,5 C 3,1 C -10,3 C 81 % 7 cb 1018,4 hPa 0,0 l/m 1,6 km/h W-SW 248 0 min 0 W/m 3,2 km/h
12.12.2018 21:10 -7,7 C 4,5 C 3,5 C 3,1 C -10,4 C 81 % 7 cb 1018,5 hPa 0,0 l/m 2,0 km/h W-SW 248 0 min 0 W/m 3,2 km/h
12.12.2018 21:05 -7,7 C 4,5 C 3,5 C 3,1 C -10,6 C 80 % 7 cb 1018,5 hPa 0,0 l/m 1,9 km/h W-SW 248 0 min 0 W/m 3,2 km/h
12.12.2018 21:00 -7,7 C 4,5 C 3,5 C 3,1 C -10,6 C 80 % 7 cb 1018,5 hPa 0,0 l/m 2,9 km/h W-SW 248 0 min 0 W/m 4,8 km/h
12.12.2018 20:55 -7,6 C 4,5 C 3,5 C 3,1 C -10,4 C 80 % 7 cb 1018,5 hPa 0,0 l/m 3,4 km/h W-SW 248 0 min 0 W/m 4,8 km/h
12.12.2018 20:50 -7,6 C 4,5 C 3,5 C 3,1 C -10,6 C 80 % 7 cb 1018,6 hPa 0,0 l/m 3,2 km/h W-SW 248 0 min 0 W/m 4,8 km/h
12.12.2018 20:45 -7,5 C 4,5 C 3,5 C 3,1 C -10,4 C 80 % 7 cb 1018,7 hPa 0,0 l/m 2,5 km/h W 270 0 min 0 W/m 4,8 km/h
12.12.2018 20:40 -7,4 C 4,5 C 3,5 C 3,1 C -10,4 C 80 % 7 cb 1018,5 hPa 0,0 l/m 2,0 km/h W 270 0 min 0 W/m 4,8 km/h
12.12.2018 20:35 -7,3 C 4,5 C 3,5 C 3,1 C -10,6 C 80 % 7 cb 1018,6 hPa 0,0 l/m 2,3 km/h W 270 0 min 0 W/m 3,2 km/h
12.12.2018 20:30 -7,3 C 4,5 C 3,5 C 3,1 C -10,6 C 80 % 7 cb 1018,7 hPa 0,0 l/m 2,4 km/h W 270 0 min 0 W/m 3,2 km/h
12.12.2018 20:25 -7,3 C 4,5 C 3,5 C 3,1 C -10,6 C 80 % 7 cb 1018,6 hPa 0,0 l/m 2,5 km/h W 270 0 min 0 W/m 3,2 km/h
12.12.2018 20:20 -7,2 C 4,5 C 3,5 C 3,1 C -10,6 C 80 % 7 cb 1018,6 hPa 0,0 l/m 2,1 km/h W 270 0 min 0 W/m 3,2 km/h
12.12.2018 20:15 -7,2 C 4,5 C 3,5 C 3,1 C -10,4 C 80 % 7 cb 1018,6 hPa 0,0 l/m 2,4 km/h W 270 0 min 0 W/m 3,2 km/h
12.12.2018 20:10 -7,1 C 4,5 C 3,5 C 3,1 C -10,4 C 80 % 7 cb 1018,6 hPa 0,0 l/m 1,2 km/h W 270 0 min 0 W/m 3,2 km/h
12.12.2018 20:05 -7,1 C 4,5 C 3,5 C 3,1 C -10,2 C 80 % 7 cb 1018,7 hPa 0,0 l/m 1,1 km/h W 270 0 min 0 W/m 3,2 km/h
12.12.2018 20:00 -7,1 C 4,5 C 3,5 C 3,1 C -9,9 C 79 % 7 cb 1018,7 hPa 0,0 l/m 2,9 km/h W 270 0 min 0 W/m 4,8 km/h
12.12.2018 19:55 -7,0 C 4,5 C 3,5 C 3,1 C -10,2 C 79 % 7 cb 1018,8 hPa 0,0 l/m 0,3 km/h SW 225 0 min 0 W/m 3,2 km/h
12.12.2018 19:50 -7,0 C 4,5 C 3,6 C 3,1 C -10,2 C 79 % 7 cb 1018,8 hPa 0,0 l/m 0,0 km/h N 360 0 min 0 W/m 0,0 km/h
12.12.2018 19:45 -6,9 C 4,5 C 3,6 C 3,1 C -10,1 C 78 % 7 cb 1018,8 hPa 0,0 l/m 0,0 km/h N 360 0 min 0 W/m 0,0 km/h
12.12.2018 19:40 -6,9 C 4,5 C 3,6 C 3,1 C -10,2 C 78 % 7 cb 1018,8 hPa 0,0 l/m 0,0 km/h N 360 0 min 0 W/m 0,0 km/h
12.12.2018 19:35 -6,9 C 4,5 C 3,6 C 3,1 C -10,1 C 78 % 7 cb 1018,8 hPa 0,0 l/m 0,0 km/h N 360 0 min 0 W/m 0,0 km/h
12.12.2018 19:30 -6,8 C 4,5 C 3,6 C 3,1 C -10,1 C 78 % 7 cb 1018,9 hPa 0,0 l/m 0,0 km/h N 360 0 min 0 W/m 0,0 km/h
12.12.2018 19:25 -6,8 C 4,5 C 3,6 C 3,1 C -10,0 C 78 % 7 cb 1018,9 hPa 0,0 l/m 0,0 km/h N 360 0 min 0 W/m 0,0 km/h
12.12.2018 19:20 -6,8 C 4,5 C 3,6 C 3,2 C -10,0 C 78 % 7 cb 1018,9 hPa 0,0 l/m 0,0 km/h N 360 0 min 0 W/m 0,0 km/h
12.12.2018 19:15 -6,7 C 4,5 C 3,6 C 3,2 C -9,9 C 77 % 7 cb 1018,8 hPa 0,0 l/m 0,0 km/h N 360 0 min 0 W/m 0,0 km/h
12.12.2018 19:10 -6,7 C 4,5 C 3,6 C 3,2 C -9,9 C 77 % 7 cb 1018,8 hPa 0,0 l/m 0,0 km/h N 360 0 min 0 W/m 0,0 km/h
12.12.2018 19:05 -6,7 C 4,5 C 3,6 C 3,2 C -9,9 C 77 % 7 cb 1018,9 hPa 0,0 l/m 0,0 km/h N 360 0 min 0 W/m 0,0 km/h
12.12.2018 19:00 -6,6 C 4,5 C 3,6 C 3,2 C -10,0 C 77 % 7 cb 1018,9 hPa 0,0 l/m 0,0 km/h N 360 0 min 0 W/m 0,0 km/h
12.12.2018 18:55 -6,6 C 4,5 C 3,6 C 3,2 C -10,0 C 77 % 7 cb 1018,8 hPa 0,0 l/m 0,0 km/h N 360 0 min 0 W/m 0,0 km/h
12.12.2018 18:50 -6,6 C 4,5 C 3,6 C 3,2 C -9,9 C 77 % 7 cb 1018,8 hPa 0,0 l/m 0,0 km/h N 360 0 min 0 W/m 0,0 km/h
12.12.2018 18:45 -6,5 C 4,5 C 3,6 C 3,2 C -9,9 C 77 % 7 cb 1018,9 hPa 0,0 l/m 0,0 km/h N 360 0 min 0 W/m 0,0 km/h
12.12.2018 18:40 -6,4 C 4,5 C 3,6 C 3,2 C -9,9 C 77 % 7 cb 1018,9 hPa 0,0 l/m 0,1 km/h SW 225 0 min 0 W/m 1,6 km/h
12.12.2018 18:35 -6,4 C 4,5 C 3,6 C 3,2 C -9,6 C 77 % 7 cb 1018,8 hPa 0,0 l/m 1,1 km/h SW 225 0 min 0 W/m 3,2 km/h
12.12.2018 18:30 -6,4 C 4,5 C 3,6 C 3,2 C -9,6 C 77 % 7 cb 1019,0 hPa 0,0 l/m 1,6 km/h SW 225 0 min 0 W/m 3,2 km/h
12.12.2018 18:25 -6,4 C 4,5 C 3,6 C 3,2 C -9,6 C 77 % 7 cb 1018,9 hPa 0,0 l/m 2,9 km/h SW 225 0 min 0 W/m 4,8 km/h
12.12.2018 18:20 -6,3 C 4,5 C 3,6 C 3,2 C -9,3 C 77 % 7 cb 1018,9 hPa 0,0 l/m 3,1 km/h SW 225 0 min 0 W/m 4,8 km/h
12.12.2018 18:15 -6,3 C 4,5 C 3,6 C 3,2 C -9,2 C 76 % 7 cb 1018,9 hPa 0,0 l/m 2,6 km/h SW 225 0 min 0 W/m 4,8 km/h
12.12.2018 18:10 -6,3 C 4,5 C 3,6 C 3,2 C -9,3 C 76 % 7 cb 1018,9 hPa 0,0 l/m 2,8 km/h SW 225 0 min 0 W/m 3,2 km/h
12.12.2018 18:05 -6,2 C 4,5 C 3,6 C 3,2 C -9,4 C 76 % 7 cb 1018,9 hPa 0,0 l/m 2,5 km/h SW 225 0 min 0 W/m 3,2 km/h
12.12.2018 18:00 -6,2 C 4,5 C 3,6 C 3,2 C -9,4 C 76 % 7 cb 1018,9 hPa 0,0 l/m 2,3 km/h SW 225 0 min 0 W/m 3,2 km/h
12.12.2018 17:55 -6,1 C 4,5 C 3,6 C 3,2 C -9,6 C 75 % 7 cb 1019,0 hPa 0,0 l/m 1,2 km/h SW 225 0 min 0 W/m 3,2 km/h
12.12.2018 17:50 -6,1 C 4,5 C 3,6 C 3,2 C -9,3 C 75 % 7 cb 1018,9 hPa 0,0 l/m 2,9 km/h SW 225 0 min 0 W/m 4,8 km/h
12.12.2018 17:45 -5,9 C 4,5 C 3,6 C 3,2 C -9,4 C 74 % 7 cb 1018,9 hPa 0,0 l/m 4,3 km/h SW 225 0 min 0 W/m 6,4 km/h
12.12.2018 17:40 -5,9 C 4,5 C 3,6 C 3,2 C -9,4 C 74 % 7 cb 1018,9 hPa 0,0 l/m 3,9 km/h SW 225 0 min 0 W/m 4,8 km/h
12.12.2018 17:35 -5,8 C 4,5 C 3,6 C 3,2 C -9,3 C 74 % 7 cb 1018,9 hPa 0,2 l/m 2,5 km/h SW 225 0 min 0 W/m 4,8 km/h
12.12.2018 17:30 -5,7 C 4,5 C 3,6 C 3,2 C -9,3 C 74 % 7 cb 1018,8 hPa 0,0 l/m 1,8 km/h SW 225 0 min 0 W/m 3,2 km/h
12.12.2018 17:25 -5,7 C 4,5 C 3,6 C 3,2 C -9,3 C 74 % 7 cb 1018,8 hPa 0,0 l/m 0,4 km/h SW 225 0 min 0 W/m 1,6 km/h
12.12.2018 17:20 -5,6 C 4,6 C 3,6 C 3,2 C -9,4 C 74 % 7 cb 1018,8 hPa 0,0 l/m 0,0 km/h N 360 0 min 0 W/m 0,0 km/h
12.12.2018 17:15 -5,6 C 4,5 C 3,6 C 3,2 C -9,3 C 73 % 7 cb 1018,8 hPa 0,0 l/m 0,1 km/h SW 225 0 min 0 W/m 1,6 km/h
12.12.2018 17:10 -5,5 C 4,6 C 3,6 C 3,2 C -8,8 C 73 % 7 cb 1018,8 hPa 0,0 l/m 0,6 km/h SW 225 0 min 0 W/m 1,6 km/h
12.12.2018 17:05 -5,4 C 4,6 C 3,6 C 3,2 C -8,9 C 73 % 7 cb 1018,8 hPa 0,0 l/m 2,0 km/h SW 225 0 min 0 W/m 3,2 km/h
12.12.2018 17:00 -5,4 C 4,6 C 3,6 C 3,2 C -8,6 C 73 % 7 cb 1018,6 hPa 0,0 l/m 3,6 km/h SW 225 0 min 0 W/m 6,4 km/h
12.12.2018 16:55 -5,3 C 4,6 C 3,6 C 3,2 C -8,6 C 73 % 7 cb 1018,6 hPa 0,0 l/m 2,7 km/h W 270 0 min 0 W/m 4,8 km/h
12.12.2018 16:50 -5,3 C 4,6 C 3,6 C 3,2 C -8,6 C 72 % 7 cb 1018,6 hPa 0,0 l/m 3,4 km/h W 270 0 min 0 W/m 4,8 km/h
12.12.2018 16:45 -5,2 C 4,6 C 3,6 C 3,2 C -8,6 C 72 % 7 cb 1018,7 hPa 0,0 l/m 2,4 km/h W 270 0 min 0 W/m 4,8 km/h
12.12.2018 16:40 -5,2 C 4,6 C 3,6 C 3,2 C -8,3 C 72 % 7 cb 1018,8 hPa 0,0 l/m 3,6 km/h W 270 0 min 0 W/m 4,8 km/h
12.12.2018 16:35 -5,1 C 4,6 C 3,6 C 3,2 C -8,3 C 71 % 7 cb 1018,6 hPa 0,0 l/m 4,5 km/h W-SW 248 0 min 0 W/m 6,4 km/h
12.12.2018 16:30 -4,9 C 4,6 C 3,6 C 3,2 C -8,4 C 71 % 7 cb 1018,7 hPa 0,0 l/m 3,3 km/h W-SW 248 0 min 0 W/m 4,8 km/h
12.12.2018 16:25 -4,8 C 4,6 C 3,6 C 3,2 C -8,1 C 71 % 7 cb 1018,8 hPa 0,0 l/m 3,9 km/h W-SW 248 0 min 3 W/m 4,8 km/h
12.12.2018 16:20 -4,8 C 4,6 C 3,6 C 3,2 C -8,1 C 71 % 7 cb 1018,8 hPa 0,0 l/m 3,3 km/h W-SW 248 0 min 5 W/m 6,4 km/h
12.12.2018 16:15 -4,7 C 4,6 C 3,6 C 3,2 C -7,8 C 70 % 7 cb 1018,8 hPa 0,0 l/m 3,0 km/h W-SW 248 0 min 7 W/m 4,8 km/h
12.12.2018 16:10 -4,6 C 4,6 C 3,6 C 3,2 C -8,2 C 70 % 7 cb 1018,8 hPa 0,0 l/m 0,3 km/h W-SW 248 0 min 8 W/m 4,8 km/h
12.12.2018 16:05 -4,4 C 4,6 C 3,6 C 3,2 C -8,3 C 70 % 7 cb 1018,9 hPa 0,0 l/m 0,0 km/h N 360 0 min 9 W/m 0,0 km/h
12.12.2018 16:00 -4,3 C 4,6 C 3,6 C 3,2 C -8,0 C 69 % 7 cb 1018,9 hPa 0,0 l/m 0,0 km/h N 360 0 min 11 W/m 0,0 km/h
12.12.2018 15:55 -4,2 C 4,6 C 3,6 C 3,2 C -7,9 C 69 % 7 cb 1018,8 hPa 0,0 l/m 0,0 km/h N 360 0 min 11 W/m 0,0 km/h
12.12.2018 15:50 -4,1 C 4,6 C 3,6 C 3,2 C -7,9 C 68 % 7 cb 1019,0 hPa 0,0 l/m 0,0 km/h N 360 0 min 12 W/m 0,0 km/h
12.12.2018 15:45 -3,9 C 4,6 C 3,6 C 3,2 C -7,8 C 69 % 7 cb 1019,0 hPa 0,0 l/m 0,0 km/h N 360 0 min 13 W/m 0,0 km/h
12.12.2018 15:40 -3,8 C 4,6 C 3,6 C 3,2 C -7,7 C 68 % 7 cb 1019,0 hPa 0,0 l/m 0,0 km/h N 360 0 min 14 W/m 0,0 km/h
12.12.2018 15:35 -3,7 C 4,6 C 3,6 C 3,2 C -7,4 C 68 % 7 cb 1018,8 hPa 0,0 l/m 0,0 km/h N 360 0 min 15 W/m 0,0 km/h
12.12.2018 15:30 -3,6 C 4,6 C 3,6 C 3,2 C -7,2 C 68 % 7 cb 1018,8 hPa 0,0 l/m 0,0 km/h N 360 0 min 16 W/m 0,0 km/h
12.12.2018 15:25 -3,4 C 4,6 C 3,6 C 3,2 C -7,1 C 67 % 7 cb 1018,9 hPa 0,0 l/m 0,0 km/h N 360 0 min 18 W/m 0,0 km/h
12.12.2018 15:20 -3,2 C 4,6 C 3,6 C 3,2 C -6,9 C 67 % 7 cb 1018,8 hPa 0,0 l/m 0,0 km/h N 360 0 min 18 W/m 0,0 km/h
12.12.2018 15:15 -3,1 C 4,6 C 3,6 C 3,2 C -6,8 C 66 % 7 cb 1018,8 hPa 0,0 l/m 0,0 km/h N 360 0 min 19 W/m 0,0 km/h
12.12.2018 15:10 -2,9 C 4,6 C 3,6 C 3,2 C -6,6 C 66 % 7 cb 1018,8 hPa 0,0 l/m 0,0 km/h N 360 0 min 19 W/m 0,0 km/h
12.12.2018 15:05 -2,8 C 4,6 C 3,6 C 3,2 C -6,1 C 66 % 7 cb 1018,9 hPa 0,0 l/m 0,1 km/h W-SW 248 0 min 20 W/m 1,6 km/h
12.12.2018 15:00 -2,7 C 4,6 C 3,6 C 3,2 C -5,4 C 67 % 7 cb 1018,9 hPa 0,0 l/m 0,0 km/h N 360 0 min 46 W/m 0,0 km/h
12.12.2018 14:55 -2,7 C 4,6 C 3,6 C 3,2 C -3,8 C 67 % 7 cb 1019,0 hPa 0,0 l/m 0,9 km/h W-SW 248 5 min 114 W/m 3,2 km/h
12.12.2018 14:50 -2,7 C 4,6 C 3,6 C 3,2 C -2,9 C 67 % 7 cb 1019,0 hPa 0,0 l/m 1,1 km/h W-SW 248 5 min 125 W/m 3,2 km/h
12.12.2018 14:45 -2,8 C 4,6 C 3,6 C 3,2 C -1,5 C 68 % 7 cb 1019,0 hPa 0,0 l/m 0,0 km/h N 360 5 min 135 W/m 0,0 km/h
12.12.2018 14:40 -2,8 C 4,6 C 3,6 C 3,2 C -1,2 C 68 % 7 cb 1019,0 hPa 0,0 l/m 0,6 km/h W-SW 248 5 min 144 W/m 3,2 km/h
12.12.2018 14:35 -2,5 C 4,6 C 3,6 C 3,2 C -0,4 C 68 % 7 cb 1019,0 hPa 0,0 l/m 1,4 km/h W-SW 248 5 min 154 W/m 3,2 km/h
12.12.2018 14:30 -2,3 C 4,6 C 3,6 C 3,2 C -0,6 C 66 % 7 cb 1019,0 hPa 0,0 l/m 1,9 km/h W-SW 248 5 min 164 W/m 4,8 km/h
12.12.2018 14:25 -2,2 C 4,6 C 3,6 C 3,2 C -1,7 C 63 % 7 cb 1019,0 hPa 0,0 l/m 1,6 km/h W-SW 248 5 min 173 W/m 4,8 km/h
12.12.2018 14:20 -2,3 C 4,6 C 3,6 C 3,2 C -0,3 C 60 % 7 cb 1019,1 hPa 0,0 l/m 1,2 km/h W-SW 248 5 min 183 W/m 3,2 km/h
12.12.2018 14:15 -2,3 C 4,6 C 3,6 C 3,2 C 1,1 C 62 % 7 cb 1019,2 hPa 0,0 l/m 0,7 km/h W-SW 248 5 min 194 W/m 3,2 km/h
12.12.2018 14:10 -2,3 C 4,6 C 3,6 C 3,2 C 0,9 C 63 % 7 cb 1019,3 hPa 0,0 l/m 0,3 km/h W-SW 248 5 min 205 W/m 3,2 km/h
12.12.2018 14:05 -2,2 C 4,6 C 3,6 C 3,2 C 0,5 C 63 % 7 cb 1019,3 hPa 0,0 l/m 3,1 km/h W-SW 248 5 min 221 W/m 4,8 km/h
12.12.2018 14:00 -2,2 C 4,6 C 3,6 C 3,2 C 0,6 C 64 % 7 cb 1019,4 hPa 0,0 l/m 2,9 km/h W-NW 292 5 min 236 W/m 4,8 km/h
12.12.2018 13:55 -2,1 C 4,6 C 3,6 C 3,2 C 0,5 C 64 % 7 cb 1019,6 hPa 0,0 l/m 1,9 km/h W-NW 292 5 min 254 W/m 3,2 km/h
12.12.2018 13:50 -2,0 C 4,6 C 3,6 C 3,2 C 0,3 C 65 % 7 cb 1019,6 hPa 0,0 l/m 2,8 km/h W-NW 292 5 min 282 W/m 4,8 km/h
12.12.2018 13:45 -2,1 C 4,6 C 3,6 C 3,2 C 0,5 C 65 % 7 cb 1019,7 hPa 0,0 l/m 3,1 km/h W-NW 292 5 min 313 W/m 4,8 km/h
12.12.2018 13:40 -2,2 C 4,6 C 3,6 C 3,2 C 0,2 C 66 % 7 cb 1019,8 hPa 0,0 l/m 2,6 km/h W-NW 292 5 min 240 W/m 4,8 km/h
12.12.2018 13:35 -2,3 C 4,6 C 3,6 C 3,2 C 0,3 C 67 % 7 cb 1019,9 hPa 0,0 l/m 1,0 km/h W-NW 292 5 min 219 W/m 3,2 km/h
12.12.2018 13:30 -2,4 C 4,6 C 3,6 C 3,2 C 0,4 C 65 % 7 cb 1019,9 hPa 0,0 l/m 0,0 km/h W-NW 292 5 min 273 W/m 1,6 km/h
12.12.2018 13:25 -2,4 C 4,6 C 3,6 C 3,2 C 0,0 C 64 % 7 cb 1020,1 hPa 0,0 l/m 2,3 km/h W-NW 292 0 min 167 W/m 4,8 km/h
12.12.2018 13:20 -2,4 C 4,6 C 3,6 C 3,2 C 0,1 C 64 % 7 cb 1020,0 hPa 0,0 l/m 1,2 km/h W-NW 292 5 min 172 W/m 4,8 km/h
12.12.2018 13:15 -2,4 C 4,6 C 3,6 C 3,2 C 0,2 C 64 % 7 cb 1020,2 hPa 0,0 l/m 2,3 km/h W-NW 292 5 min 187 W/m 4,8 km/h
12.12.2018 13:10 -2,3 C 4,6 C 3,6 C 3,2 C 0,2 C 63 % 7 cb 1020,2 hPa 0,0 l/m 1,6 km/h W-NW 292 5 min 184 W/m 3,2 km/h
12.12.2018 13:05 -2,4 C 4,6 C 3,6 C 3,2 C 0,1 C 63 % 7 cb 1020,3 hPa 0,0 l/m 3,5 km/h W-NW 292 5 min 184 W/m 9,6 km/h
12.12.2018 13:00 -2,3 C 4,6 C 3,7 C 3,2 C 0,1 C 63 % 7 cb 1020,3 hPa 0,0 l/m 3,9 km/h W 270 5 min 182 W/m 6,4 km/h
12.12.2018 12:55 -2,2 C 4,6 C 3,6 C 3,2 C 0,2 C 64 % 7 cb 1020,4 hPa 0,0 l/m 5,5 km/h W 270 5 min 188 W/m 9,6 km/h
12.12.2018 12:50 -1,9 C 4,6 C 3,7 C 3,2 C 0,7 C 65 % 7 cb 1020,5 hPa 0,0 l/m 4,4 km/h W-NW 292 5 min 295 W/m 8,0 km/h
12.12.2018 12:45 -1,9 C 4,6 C 3,7 C 3,2 C 1,0 C 66 % 7 cb 1020,6 hPa 0,0 l/m 4,5 km/h W 270 5 min 470 W/m 8,0 km/h
12.12.2018 12:40 -2,2 C 4,6 C 3,7 C 3,2 C 0,3 C 67 % 7 cb 1020,7 hPa 0,0 l/m 4,2 km/h W-NW 292 5 min 470 W/m 9,6 km/h
12.12.2018 12:35 -2,6 C 4,6 C 3,7 C 3,2 C 0,0 C 67 % 7 cb 1020,8 hPa 0,0 l/m 3,4 km/h N-NW 338 5 min 347 W/m 6,4 km/h
12.12.2018 12:30 -2,6 C 4,6 C 3,7 C 3,2 C -0,1 C 67 % 7 cb 1020,8 hPa 0,0 l/m 5,5 km/h N-NW 338 5 min 467 W/m 9,6 km/h
12.12.2018 12:25 -2,5 C 4,6 C 3,7 C 3,2 C -0,3 C 67 % 7 cb 1020,8 hPa 0,0 l/m 6,0 km/h N-NW 338 5 min 284 W/m 8,0 km/h
12.12.2018 12:20 -2,4 C 4,6 C 3,7 C 3,2 C -0,3 C 68 % 7 cb 1020,8 hPa 0,0 l/m 4,6 km/h N-NW 338 5 min 414 W/m 8,0 km/h
12.12.2018 12:15 -2,4 C 4,6 C 3,7 C 3,2 C -0,6 C 67 % 7 cb 1020,8 hPa 0,0 l/m 5,0 km/h N-NW 338 5 min 325 W/m 8,0 km/h
12.12.2018 12:10 -2,4 C 4,6 C 3,7 C 3,2 C -0,7 C 66 % 7 cb 1020,9 hPa 0,0 l/m 5,5 km/h NW 315 5 min 372 W/m 8,0 km/h
12.12.2018 12:05 -2,4 C 4,6 C 3,7 C 3,2 C -1,0 C 65 % 7 cb 1020,9 hPa 0,0 l/m 8,1 km/h NW 315 5 min 457 W/m 12,8 km/h
12.12.2018 12:00 -2,3 C 4,6 C 3,7 C 3,2 C -1,1 C 64 % 7 cb 1021,0 hPa 0,0 l/m 6,3 km/h W-NW 292 5 min 386 W/m 12,8 km/h
12.12.2018 11:55 -2,4 C 4,6 C 3,7 C 3,2 C -1,4 C 65 % 7 cb 1021,1 hPa 0,0 l/m 6,1 km/h W-NW 292 5 min 430 W/m 9,6 km/h
12.12.2018 11:50 -2,6 C 4,6 C 3,7 C 3,2 C -1,9 C 65 % 7 cb 1021,2 hPa 0,0 l/m 9,5 km/h W 270 5 min 336 W/m 14,4 km/h
12.12.2018 11:45 -2,7 C 4,6 C 3,7 C 3,2 C -2,1 C 66 % 7 cb 1021,2 hPa 0,0 l/m 8,5 km/h W-NW 292 5 min 254 W/m 12,8 km/h
12.12.2018 11:40 -2,7 C 4,6 C 3,7 C 3,2 C -2,3 C 66 % 7 cb 1021,2 hPa 0,0 l/m 10,0 km/h W 270 5 min 290 W/m 14,4 km/h
12.12.2018 11:35 -2,8 C 4,6 C 3,7 C 3,2 C -2,2 C 66 % 7 cb 1021,2 hPa 0,0 l/m 5,1 km/h W 270 5 min 268 W/m 9,6 km/h
12.12.2018 11:30 -2,9 C 4,6 C 3,7 C 3,2 C -2,3 C 65 % 7 cb 1021,4 hPa 0,0 l/m 5,3 km/h NW 315 5 min 273 W/m 11,2 km/h
12.12.2018 11:25 -3,1 C 4,6 C 3,7 C 3,2 C -2,6 C 66 % 7 cb 1021,3 hPa 0,0 l/m 3,5 km/h SW 225 5 min 313 W/m 8,0 km/h
12.12.2018 11:20 -3,2 C 4,6 C 3,7 C 3,2 C -2,8 C 65 % 7 cb 1021,4 hPa 0,0 l/m 5,1 km/h W 270 5 min 336 W/m 11,2 km/h
12.12.2018 11:15 -3,3 C 4,6 C 3,7 C 3,2 C -3,1 C 69 % 7 cb 1021,5 hPa 0,0 l/m 5,7 km/h W 270 5 min 361 W/m 11,2 km/h
12.12.2018 11:10 -3,4 C 4,6 C 3,7 C 3,2 C -3,1 C 67 % 7 cb 1021,5 hPa 0,0 l/m 8,2 km/h W-SW 248 5 min 357 W/m 14,4 km/h
12.12.2018 11:05 -3,6 C 4,6 C 3,7 C 3,2 C -3,2 C 68 % 7 cb 1021,6 hPa 0,0 l/m 8,8 km/h W 270 5 min 353 W/m 12,8 km/h
12.12.2018 11:00 -3,7 C 4,6 C 3,7 C 3,2 C -3,4 C 68 % 7 cb 1021,6 hPa 0,0 l/m 11,3 km/h W 270 5 min 328 W/m 16,0 km/h
12.12.2018 10:55 -3,8 C 4,6 C 3,7 C 3,2 C -3,7 C 68 % 7 cb 1021,6 hPa 0,0 l/m 12,2 km/h W 270 5 min 344 W/m 16,0 km/h
12.12.2018 10:50 -3,9 C 4,6 C 3,7 C 3,2 C -3,9 C 68 % 7 cb 1021,7 hPa 0,0 l/m 13,4 km/h W 270 5 min 327 W/m 19,2 km/h
12.12.2018 10:45 -3,9 C 4,6 C 3,7 C 3,2 C -4,4 C 67 % 7 cb 1021,7 hPa 0,0 l/m 14,8 km/h W 270 5 min 290 W/m 20,8 km/h
12.12.2018 10:40 -4,1 C 4,6 C 3,7 C 3,2 C -4,5 C 67 % 7 cb 1021,7 hPa 0,0 l/m 15,5 km/h W 270 5 min 283 W/m 22,4 km/h
12.12.2018 10:35 -4,2 C 4,6 C 3,7 C 3,2 C -4,6 C 68 % 7 cb 1021,7 hPa 0,0 l/m 16,3 km/h W 270 5 min 286 W/m 24,0 km/h
12.12.2018 10:30 -4,3 C 4,6 C 3,7 C 3,2 C -4,8 C 69 % 7 cb 1021,7 hPa 0,0 l/m 14,4 km/h W 270 5 min 270 W/m 20,8 km/h
12.12.2018 10:25 -4,4 C 4,6 C 3,7 C 3,2 C -5,1 C 70 % 7 cb 1021,8 hPa 0,0 l/m 15,6 km/h W 270 5 min 242 W/m 24,0 km/h
12.12.2018 10:20 -4,6 C 4,6 C 3,7 C 3,2 C -5,1 C 70 % 7 cb 1021,7 hPa 0,0 l/m 15,0 km/h W 270 5 min 230 W/m 22,4 km/h
12.12.2018 10:15 -4,7 C 4,6 C 3,7 C 3,2 C -5,2 C 71 % 7 cb 1021,7 hPa 0,0 l/m 14,6 km/h W 270 5 min 221 W/m 24,0 km/h
12.12.2018 10:10 -4,8 C 4,6 C 3,7 C 3,2 C -5,1 C 72 % 7 cb 1021,8 hPa 0,0 l/m 14,9 km/h W 270 5 min 212 W/m 20,8 km/h
12.12.2018 10:05 -4,9 C 4,6 C 3,7 C 3,2 C -5,2 C 72 % 7 cb 1021,8 hPa 0,0 l/m 14,4 km/h W 270 5 min 205 W/m 22,4 km/h
12.12.2018 10:00 -5,0 C 4,6 C 3,7 C 3,2 C -5,2 C 72 % 7 cb 1021,9 hPa 0,0 l/m 15,7 km/h W 270 5 min 197 W/m 24,0 km/h
12.12.2018 09:55 -5,2 C 4,6 C 3,7 C 3,2 C -5,1 C 74 % 7 cb 1021,7 hPa 0,0 l/m 15,6 km/h W 270 5 min 190 W/m 20,8 km/h
12.12.2018 09:50 -5,3 C 4,6 C 3,7 C 3,2 C -5,1 C 75 % 7 cb 1021,8 hPa 0,0 l/m 15,8 km/h W 270 5 min 167 W/m 25,6 km/h
12.12.2018 09:45 -5,4 C 4,6 C 3,7 C 3,2 C -5,1 C 75 % 7 cb 1021,8 hPa 0,0 l/m 17,7 km/h W 270 5 min 169 W/m 27,2 km/h
12.12.2018 09:40 -5,6 C 4,6 C 3,7 C 3,2 C -5,1 C 76 % 7 cb 1021,7 hPa 0,0 l/m 18,5 km/h W 270 0 min 63 W/m 25,6 km/h
12.12.2018 09:35 -5,7 C 4,6 C 3,7 C 3,2 C -4,9 C 77 % 7 cb 1021,8 hPa 0,0 l/m 14,2 km/h W 270 5 min 151 W/m 22,4 km/h
12.12.2018 09:30 -5,7 C 4,6 C 3,7 C 3,2 C -5,1 C 77 % 7 cb 1021,8 hPa 0,0 l/m 15,2 km/h W 270 0 min 106 W/m 20,8 km/h
12.12.2018 09:25 -5,8 C 4,6 C 3,7 C 3,2 C -5,1 C 78 % 7 cb 1021,8 hPa 0,0 l/m 14,2 km/h W 270 5 min 138 W/m 20,8 km/h
12.12.2018 09:20 -5,8 C 4,6 C 3,7 C 3,2 C -5,1 C 77 % 7 cb 1021,8 hPa 0,0 l/m 13,6 km/h W 270 5 min 115 W/m 20,8 km/h
12.12.2018 09:15 -5,8 C 4,6 C 3,7 C 3,2 C -5,4 C 78 % 7 cb 1021,9 hPa 0,0 l/m 13,0 km/h W 270 0 min 71 W/m 19,2 km/h
12.12.2018 09:10 -5,7 C 4,7 C 3,7 C 3,2 C -5,4 C 78 % 7 cb 1021,9 hPa 0,0 l/m 13,3 km/h W 270 0 min 34 W/m 19,2 km/h
12.12.2018 09:05 -5,7 C 4,7 C 3,7 C 3,2 C -5,4 C 78 % 7 cb 1021,8 hPa 0,0 l/m 12,5 km/h W 270 0 min 33 W/m 20,8 km/h
12.12.2018 09:00 -5,8 C 4,7 C 3,7 C 3,2 C -5,4 C 79 % 7 cb 1021,8 hPa 0,0 l/m 11,3 km/h W-SW 248 0 min 35 W/m 19,2 km/h
12.12.2018 08:55 -5,8 C 4,7 C 3,7 C 3,2 C -5,3 C 79 % 7 cb 1021,9 hPa 0,0 l/m 12,9 km/h W 270 0 min 40 W/m 17,6 km/h
12.12.2018 08:50 -5,8 C 4,7 C 3,7 C 3,2 C -4,9 C 79 % 7 cb 1021,8 hPa 0,0 l/m 14,3 km/h W 270 0 min 40 W/m 20,8 km/h
12.12.2018 08:45 -5,9 C 4,7 C 3,7 C 3,2 C -5,1 C 80 % 7 cb 1021,9 hPa 0,0 l/m 14,1 km/h W 270 0 min 35 W/m 19,2 km/h
12.12.2018 08:40 -5,9 C 4,7 C 3,7 C 3,2 C -5,2 C 80 % 7 cb 1021,8 hPa 0,0 l/m 14,6 km/h W 270 0 min 24 W/m 19,2 km/h
12.12.2018 08:35 -5,9 C 4,7 C 3,7 C 3,2 C -5,5 C 79 % 7 cb 1021,9 hPa 0,0 l/m 11,4 km/h W 270 0 min 17 W/m 16,0 km/h
12.12.2018 08:30 -5,8 C 4,7 C 3,7 C 3,2 C -5,5 C 79 % 7 cb 1021,8 hPa 0,0 l/m 10,0 km/h W 270 0 min 15 W/m 14,4 km/h
12.12.2018 08:25 -5,8 C 4,7 C 3,7 C 3,2 C -5,6 C 79 % 7 cb 1021,7 hPa 0,0 l/m 6,7 km/h W 270 0 min 12 W/m 12,8 km/h
12.12.2018 08:20 -5,7 C 4,7 C 3,7 C 3,2 C -5,4 C 78 % 7 cb 1021,8 hPa 0,0 l/m 9,1 km/h W 270 0 min 11 W/m 14,4 km/h
12.12.2018 08:15 -5,7 C 4,7 C 3,7 C 3,2 C -5,2 C 78 % 7 cb 1021,8 hPa 0,0 l/m 11,2 km/h W 270 0 min 10 W/m 17,6 km/h
12.12.2018 08:10 -5,6 C 4,7 C 3,7 C 3,2 C -5,2 C 77 % 7 cb 1021,8 hPa 0,0 l/m 12,0 km/h W 270 0 min 8 W/m 16,0 km/h
12.12.2018 08:05 -5,4 C 4,7 C 3,7 C 3,2 C -5,3 C 77 % 7 cb 1021,8 hPa 0,0 l/m 11,4 km/h W-NW 292 0 min 7 W/m 17,6 km/h
12.12.2018 08:00 -5,4 C 4,7 C 3,7 C 3,2 C -5,2 C 77 % 7 cb 1021,7 hPa 0,0 l/m 13,5 km/h W 270 0 min 5 W/m 20,8 km/h
12.12.2018 07:55 -5,3 C 4,7 C 3,7 C 3,2 C -5,3 C 78 % 7 cb 1021,7 hPa 0,0 l/m 10,2 km/h W 270 0 min 2 W/m 17,6 km/h
12.12.2018 07:50 -5,3 C 4,7 C 3,7 C 3,2 C -4,9 C 77 % 7 cb 1021,7 hPa 0,0 l/m 13,4 km/h W 270 0 min 0 W/m 19,2 km/h
12.12.2018 07:45 -5,2 C 4,7 C 3,7 C 3,2 C -4,9 C 77 % 7 cb 1021,6 hPa 0,0 l/m 13,9 km/h W 270 0 min 0 W/m 20,8 km/h
12.12.2018 07:40 -5,2 C 4,7 C 3,7 C 3,2 C -4,8 C 76 % 7 cb 1021,5 hPa 0,0 l/m 13,4 km/h W 270 0 min 0 W/m 19,2 km/h
12.12.2018 07:35 -5,1 C 4,7 C 3,7 C 3,2 C -4,6 C 76 % 7 cb 1021,4 hPa 0,0 l/m 16,0 km/h W 270 0 min 0 W/m 22,4 km/h
12.12.2018 07:30 -4,9 C 4,7 C 3,7 C 3,2 C -4,6 C 76 % 7 cb 1021,4 hPa 0,0 l/m 15,5 km/h W-NW 292 0 min 0 W/m 22,4 km/h
12.12.2018 07:25 -4,8 C 4,7 C 3,7 C 3,2 C -4,4 C 77 % 7 cb 1021,3 hPa 0,0 l/m 13,1 km/h W 270 0 min 0 W/m 19,2 km/h
12.12.2018 07:20 -4,8 C 4,7 C 3,7 C 3,2 C -4,1 C 77 % 7 cb 1021,3 hPa 0,0 l/m 14,0 km/h W 270 0 min 0 W/m 22,4 km/h
12.12.2018 07:15 -4,7 C 4,7 C 3,7 C 3,2 C -3,9 C 77 % 7 cb 1021,3 hPa 0,0 l/m 16,5 km/h W 270 0 min 0 W/m 22,4 km/h
12.12.2018 07:10 -4,7 C 4,7 C 3,7 C 3,2 C -3,7 C 77 % 7 cb 1021,3 hPa 0,0 l/m 15,5 km/h W 270 0 min 0 W/m 22,4 km/h
12.12.2018 07:05 -4,7 C 4,7 C 3,7 C 3,2 C -3,7 C 78 % 7 cb 1021,4 hPa 0,0 l/m 13,2 km/h W 270 0 min 0 W/m 19,2 km/h
12.12.2018 07:00 -4,7 C 4,7 C 3,7 C 3,2 C -3,7 C 78 % 7 cb 1021,3 hPa 0,0 l/m 10,8 km/h W 270 0 min 0 W/m 16,0 km/h
12.12.2018 06:55 -4,6 C 4,7 C 3,7 C 3,2 C -3,6 C 78 % 7 cb 1021,4 hPa 0,0 l/m 12,6 km/h W 270 0 min 0 W/m 17,6 km/h
12.12.2018 06:50 -4,7 C 4,7 C 3,7 C 3,2 C -3,6 C 78 % 7 cb 1021,4 hPa 0,0 l/m 14,3 km/h W 270 0 min 0 W/m 22,4 km/h
12.12.2018 06:45 -4,7 C 4,7 C 3,7 C 3,2 C -3,7 C 78 % 7 cb 1021,3 hPa 0,0 l/m 11,2 km/h W 270 0 min 0 W/m 19,2 km/h
12.12.2018 06:40 -4,7 C 4,7 C 3,7 C 3,2 C -3,7 C 78 % 7 cb 1021,4 hPa 0,0 l/m 10,0 km/h W-NW 292 0 min 0 W/m 17,6 km/h
12.12.2018 06:35 -4,6 C 4,7 C 3,7 C 3,2 C -3,7 C 78 % 7 cb 1021,3 hPa 0,0 l/m 13,8 km/h W 270 0 min 0 W/m 19,2 km/h
12.12.2018 06:30 -4,7 C 4,7 C 3,7 C 3,2 C -3,8 C 79 % 7 cb 1021,3 hPa 0,0 l/m 12,6 km/h W-NW 292 0 min 0 W/m 17,6 km/h
12.12.2018 06:25 -4,6 C 4,7 C 3,7 C 3,2 C -3,9 C 79 % 7 cb 1021,3 hPa 0,0 l/m 10,6 km/h W-NW 292 0 min 0 W/m 14,4 km/h
12.12.2018 06:20 -4,6 C 4,7 C 3,7 C 3,2 C -3,9 C 79 % 7 cb 1021,3 hPa 0,0 l/m 8,7 km/h W-NW 292 0 min 0 W/m 12,8 km/h
12.12.2018 06:15 -4,6 C 4,7 C 3,7 C 3,2 C -3,9 C 79 % 7 cb 1021,3 hPa 0,0 l/m 14,5 km/h W 270 0 min 0 W/m 19,2 km/h
12.12.2018 06:10 -4,6 C 4,7 C 3,7 C 3,2 C -4,1 C 80 % 7 cb 1021,3 hPa 0,0 l/m 11,4 km/h W-NW 292 0 min 0 W/m 17,6 km/h
12.12.2018 06:05 -4,6 C 4,7 C 3,7 C 3,3 C -4,1 C 80 % 7 cb 1021,3 hPa 0,0 l/m 11,9 km/h W-NW 292 0 min 0 W/m 16,0 km/h
12.12.2018 06:00 -4,6 C 4,7 C 3,7 C 3,3 C -4,3 C 80 % 7 cb 1021,1 hPa 0,0 l/m 8,4 km/h W-SW 248 0 min 0 W/m 17,6 km/h
12.12.2018 05:55 -4,6 C 4,7 C 3,7 C 3,3 C -4,2 C 79 % 7 cb 1021,2 hPa 0,0 l/m 9,0 km/h W 270 0 min 0 W/m 16,0 km/h
12.12.2018 05:50 -4,6 C 4,7 C 3,7 C 3,3 C -4,2 C 79 % 7 cb 1021,2 hPa 0,0 l/m 11,1 km/h W 270 0 min 0 W/m 19,2 km/h
12.12.2018 05:45 -4,5 C 4,7 C 3,7 C 3,3 C -4,2 C 79 % 7 cb 1021,2 hPa 0,0 l/m 14,8 km/h W 270 0 min 0 W/m 20,8 km/h
12.12.2018 05:40 -4,4 C 4,7 C 3,7 C 3,3 C -4,4 C 79 % 7 cb 1021,0 hPa 0,0 l/m 10,6 km/h W-NW 292 0 min 0 W/m 16,0 km/h
12.12.2018 05:35 -4,3 C 4,7 C 3,7 C 3,3 C -4,4 C 79 % 7 cb 1021,1 hPa 0,0 l/m 13,2 km/h W 270 0 min 0 W/m 17,6 km/h
12.12.2018 05:30 -4,3 C 4,7 C 3,7 C 3,3 C -4,5 C 79 % 7 cb 1021,1 hPa 0,0 l/m 10,8 km/h W 270 0 min 0 W/m 14,4 km/h
12.12.2018 05:25 -4,1 C 4,7 C 3,7 C 3,3 C -4,7 C 79 % 7 cb 1021,2 hPa 0,0 l/m 5,0 km/h NW 315 0 min 0 W/m 14,4 km/h
12.12.2018 05:20 -4,0 C 4,7 C 3,7 C 3,3 C -4,6 C 79 % 7 cb 1021,3 hPa 0,0 l/m 3,9 km/h N-NW 338 0 min 0 W/m 6,4 km/h
12.12.2018 05:15 -3,9 C 4,7 C 3,7 C 3,3 C -4,3 C 79 % 7 cb 1021,3 hPa 0,0 l/m 4,9 km/h SW 225 0 min 0 W/m 6,4 km/h
12.12.2018 05:10 -3,9 C 4,7 C 3,7 C 3,3 C -4,1 C 79 % 7 cb 1021,4 hPa 0,0 l/m 6,0 km/h W 270 0 min 0 W/m 11,2 km/h
12.12.2018 05:05 -3,9 C 4,7 C 3,7 C 3,3 C -3,9 C 79 % 7 cb 1021,6 hPa 0,0 l/m 7,0 km/h W 270 0 min 0 W/m 12,8 km/h
12.12.2018 05:00 -3,8 C 4,7 C 3,7 C 3,3 C -3,7 C 79 % 7 cb 1021,6 hPa 0,0 l/m 7,7 km/h W 270 0 min 0 W/m 14,4 km/h
12.12.2018 04:55 -3,8 C 4,7 C 3,7 C 3,3 C -3,6 C 79 % 7 cb 1021,6 hPa 0,0 l/m 11,5 km/h W 270 0 min 0 W/m 16,0 km/h
12.12.2018 04:50 -3,8 C 4,7 C 3,7 C 3,3 C -3,7 C 79 % 7 cb 1021,5 hPa 0,0 l/m 10,9 km/h W 270 0 min 0 W/m 16,0 km/h
12.12.2018 04:45 -3,7 C 4,7 C 3,7 C 3,3 C -3,8 C 79 % 7 cb 1021,5 hPa 0,0 l/m 10,8 km/h W 270 0 min 0 W/m 16,0 km/h
12.12.2018 04:40 -3,6 C 4,7 C 3,7 C 3,3 C -3,8 C 79 % 7 cb 1021,6 hPa 0,0 l/m 11,6 km/h W 270 0 min 0 W/m 17,6 km/h
12.12.2018 04:35 -3,6 C 4,7 C 3,7 C 3,3 C -3,8 C 79 % 7 cb 1021,6 hPa 0,0 l/m 12,6 km/h W 270 0 min 0 W/m 20,8 km/h
12.12.2018 04:30 -3,4 C 4,7 C 3,7 C 3,3 C -4,1 C 79 % 7 cb 1021,6 hPa 0,0 l/m 11,5 km/h W 270 0 min 0 W/m 19,2 km/h
12.12.2018 04:25 -3,4 C 4,7 C 3,7 C 3,3 C -4,1 C 78 % 7 cb 1021,5 hPa 0,0 l/m 8,5 km/h W 270 0 min 0 W/m 12,8 km/h
12.12.2018 04:20 -3,3 C 4,7 C 3,7 C 3,3 C -4,1 C 78 % 7 cb 1021,5 hPa 0,0 l/m 5,4 km/h W 270 0 min 0 W/m 9,6 km/h
12.12.2018 04:15 -3,2 C 4,7 C 3,7 C 3,3 C -3,7 C 78 % 7 cb 1021,4 hPa 0,0 l/m 6,1 km/h W 270 0 min 0 W/m 11,2 km/h
12.12.2018 04:10 -3,1 C 4,7 C 3,7 C 3,3 C -3,4 C 78 % 7 cb 1021,3 hPa 0,0 l/m 12,3 km/h W 270 0 min 0 W/m 19,2 km/h
12.12.2018 04:05 -3,1 C 4,7 C 3,7 C 3,3 C -3,1 C 78 % 7 cb 1021,3 hPa 0,0 l/m 14,1 km/h W 270 0 min 0 W/m 20,8 km/h
12.12.2018 04:00 -3,1 C 4,7 C 3,7 C 3,3 C -3,1 C 78 % 7 cb 1021,5 hPa 0,0 l/m 16,9 km/h W 270 0 min 0 W/m 22,4 km/h
_ Min-Zeit 03:20 00:25 02:55 00:35 03:15 14:20 04:00 03:25 - 13:30 - - - - 14:45
Minimum _ -9,7 C 4,4 C 3,2 C 2,8 C -12,6 C 60 % 7 cb 1015,8 hPa - 0,0 km/h - - - - 0,0 km/h
_ Max-Zeit 12:45 04:00 04:00 04:00 14:15 22:25 04:00 08:35 17:35 09:40 - - 09:20 12:40 09:45
Maximum _ -1,9 C 4,7 C 3,7 C 3,3 C 1,1 C 84 % 7 cb 1021,9 hPa 0,2 l/m 18,5 km/h
W
- - 5 min 470 W/m 27,2 km/h
W
Durchschnitt _ -5,5 C 4,6 C 3,6 C 3,1 C -6,6 C 76 % 7 cb 1019,6 hPa #0,2 l/m 6,2 km/h W - #0 min. 0 W/m 9,5 km/h